Time,TemperatureF,DewpointF,PressureIn,WindDirection,WindDirectionDegrees,WindSpeedMPH,WindSpeedGustMPH,Humidity,HourlyPrecipIn,Conditions,Clouds,dailyrainin,SolarRadiationWatts/m^2,SoftwareType,DateUTC
2013-01-13 00:13:00,6.2,2.0,30.35,South,173,0.0,0.0,81,0.00,,,0.00,0,weatherlink.com 1.10,2013-01-13 07:13:00,
2013-01-13 00:28:00,8.7,4.0,30.35,SSE,167,0.0,0.0,80,0.00,,,0.00,0,weatherlink.com 1.10,2013-01-13 07:28:00,
2013-01-13 00:43:00,6.3,0.0,30.35,SSE,167,0.0,0.0,75,0.00,,,0.00,0,weatherlink.com 1.10,2013-01-13 07:43:00,
2013-01-13 00:58:00,5.5,0.0,30.36,SSE,167,0.0,0.0,78,0.00,,,0.00,0,weatherlink.com 1.10,2013-01-13 07:58:00,
2013-01-13 01:14:00,5.1,0.0,30.36,SSE,167,0.0,0.0,79,0.00,,,0.00,0,weatherlink.com 1.10,2013-01-13 08:14:00,
2013-01-13 01:29:00,5.0,0.0,30.36,SSE,167,0.0,0.0,78,0.00,,,0.00,0,weatherlink.com 1.10,2013-01-13 08:29:00,
2013-01-13 01:44:00,5.3,1.0,30.36,SSE,167,0.0,0.0,82,0.00,,,0.00,0,weatherlink.com 1.10,2013-01-13 08:44:00,
2013-01-13 01:59:00,5.0,0.0,30.37,SSE,167,0.0,0.0,81,0.00,,,0.00,0,weatherlink.com 1.10,2013-01-13 08:59:00,
2013-01-13 02:14:00,6.4,0.0,30.37,SSE,167,0.0,0.0,76,0.00,,,0.00,0,weatherlink.com 1.10,2013-01-13 09:14:00,
2013-01-13 02:29:00,6.6,0.0,30.37,SSE,167,0.0,0.0,74,0.00,,,0.00,0,weatherlink.com 1.10,2013-01-13 09:29:00,
2013-01-13 02:44:00,7.3,1.0,30.37,SSE,167,0.0,0.0,76,0.00,,,0.00,0,weatherlink.com 1.10,2013-01-13 09:44:00,
2013-01-13 02:59:00,4.5,-2.0,30.36,WSW,240,0.0,0.0,76,0.00,,,0.00,0,weatherlink.com 1.10,2013-01-13 09:59:00,
2013-01-13 03:14:00,5.3,0.0,30.36,WSW,242,0.0,0.0,80,0.00,,,0.00,0,weatherlink.com 1.10,2013-01-13 10:14:00,
2013-01-13 03:29:00,7.2,1.0,30.36,WSW,242,0.0,0.0,75,0.00,,,0.00,0,weatherlink.com 1.10,2013-01-13 10:29:00,
2013-01-13 03:44:00,7.6,0.0,30.35,WSW,242,0.0,0.0,72,0.00,,,0.00,0,weatherlink.com 1.10,2013-01-13 10:44:00,
2013-01-13 03:59:00,6.9,-1.0,30.35,WSW,242,0.0,0.0,71,0.00,,,0.00,0,weatherlink.com 1.10,2013-01-13 10:59:00,
2013-01-13 04:14:00,7.3,1.0,30.35,WSW,242,0.0,0.0,74,0.00,,,0.00,0,weatherlink.com 1.10,2013-01-13 11:14:00,
2013-01-13 04:29:00,7.2,1.0,30.35,WSW,242,0.0,0.0,74,0.00,,,0.00,0,weatherlink.com 1.10,2013-01-13 11:29:00,
2013-01-13 04:44:00,7.6,0.0,30.35,WSW,242,0.0,0.0,72,0.00,,,0.00,0,weatherlink.com 1.10,2013-01-13 11:44:00,
2013-01-13 05:00:00,7.9,1.0,30.35,WSW,242,0.0,0.0,74,0.00,,,0.00,0,weatherlink.com 1.10,2013-01-13 12:00:00,
2013-01-13 05:15:00,7.9,1.0,30.35,WSW,242,0.0,0.0,73,0.00,,,0.00,0,weatherlink.com 1.10,2013-01-13 12:15:00,
2013-01-13 05:30:00,5.0,-3.0,30.36,WSW,242,0.0,0.0,71,0.00,,,0.00,0,weatherlink.com 1.10,2013-01-13 12:30:00,
2013-01-13 05:45:00,11.7,5.0,30.36,WSW,242,0.0,0.0,74,0.00,,,0.00,0,weatherlink.com 1.10,2013-01-13 12:45:00,
2013-01-13 06:00:00,10.2,1.0,30.36,WSW,242,0.0,0.0,67,0.00,,,0.00,0,weatherlink.com 1.10,2013-01-13 13:00:00,
2013-01-13 06:15:00,12.3,4.0,30.36,WSW,241,0.0,0.0,68,0.00,,,0.00,0,weatherlink.com 1.10,2013-01-13 13:15:00,
2013-01-13 06:30:00,10.1,0.0,30.37,WSW,242,0.0,0.0,64,0.00,,,0.00,0,weatherlink.com 1.10,2013-01-13 13:30:00,
2013-01-13 06:45:00,6.0,-3.0,30.37,WSW,242,0.0,0.0,67,0.00,,,0.00,0,weatherlink.com 1.10,2013-01-13 13:45:00,
2013-01-13 07:00:00,4.0,-3.0,30.38,WSW,242,0.0,0.0,72,0.00,,,0.00,0,weatherlink.com 1.10,2013-01-13 14:00:00,
2013-01-13 07:15:00,3.7,-2.0,30.39,WSW,242,0.0,0.0,77,0.00,,,0.00,0,weatherlink.com 1.10,2013-01-13 14:15:00,
2013-01-13 07:30:00,5.8,0.0,30.39,WSW,242,0.0,0.0,77,0.00,,,0.00,16,weatherlink.com 1.10,2013-01-13 14:30:00,
2013-01-13 07:45:00,4.4,-1.0,30.40,SSW,200,0.0,0.0,79,0.00,,,0.00,42,weatherlink.com 1.10,2013-01-13 14:45:00,
2013-01-13 08:00:00,6.8,1.0,30.40,SSW,200,0.0,0.0,77,0.00,,,0.00,58,weatherlink.com 1.10,2013-01-13 15:00:00,
2013-01-13 08:16:00,10.1,3.0,30.41,SSW,200,0.0,0.0,73,0.00,,,0.00,74,weatherlink.com 1.10,2013-01-13 15:16:00,
2013-01-13 08:31:00,9.9,3.0,30.41,SSE,163,0.0,0.0,72,0.00,,,0.00,104,weatherlink.com 1.10,2013-01-13 15:31:00,
2013-01-13 08:46:00,14.1,8.0,30.42,SSE,157,0.0,0.0,76,0.00,,,0.00,141,weatherlink.com 1.10,2013-01-13 15:46:00,
2013-01-13 09:01:00,12.2,2.0,30.41,East,79,0.0,2.0,64,0.00,,,0.00,185,weatherlink.com 1.10,2013-01-13 16:01:00,
2013-01-13 09:16:00,14.0,4.0,30.41,ENE,61,2.0,4.0,65,0.00,,,0.00,218,weatherlink.com 1.10,2013-01-13 16:16:00,
2013-01-13 09:31:00,15.5,3.0,30.40,East,80,0.0,3.0,59,0.00,,,0.00,250,weatherlink.com 1.10,2013-01-13 16:31:00,
2013-01-13 09:46:00,12.6,1.0,30.41,ESE,103,0.0,0.0,60,0.00,,,0.00,297,weatherlink.com 1.10,2013-01-13 16:46:00,
2013-01-13 10:01:00,15.8,4.0,30.41,East,90,0.0,1.0,61,0.00,,,0.00,360,weatherlink.com 1.10,2013-01-13 17:01:00,
2013-01-13 10:16:00,16.2,4.0,30.41,ENE,63,3.0,4.0,58,0.00,,,0.00,304,weatherlink.com 1.10,2013-01-13 17:16:00,
2013-01-13 10:31:00,17.5,2.0,30.40,East,86,0.0,5.0,51,0.00,,,0.00,355,weatherlink.com 1.10,2013-01-13 17:31:00,
2013-01-13 10:46:00,17.5,3.0,30.40,ESE,107,0.0,0.0,53,0.00,,,0.00,301,weatherlink.com 1.10,2013-01-13 17:46:00,
2013-01-13 11:01:00,19.0,5.0,30.39,ENE,59,0.0,4.0,54,0.00,,,0.00,366,weatherlink.com 1.10,2013-01-13 18:01:00,
2013-01-13 11:16:00,17.8,2.0,30.38,ENE,61,2.0,7.0,51,0.00,,,0.00,439,weatherlink.com 1.10,2013-01-13 18:16:00,
2013-01-13 11:31:00,14.9,1.0,30.37,SSE,163,2.0,9.0,53,0.00,,,0.00,490,weatherlink.com 1.10,2013-01-13 18:31:00,
2013-01-13 11:47:00,14.8,3.0,30.36,ESE,115,4.0,10.0,60,0.00,,,0.00,431,weatherlink.com 1.10,2013-01-13 18:47:00,
2013-01-13 12:02:00,19.6,4.0,30.36,East,86,5.0,10.0,52,0.00,,,0.00,538,weatherlink.com 1.10,2013-01-13 19:02:00,
2013-01-13 12:17:00,17.3,3.0,30.35,East,98,0.0,11.0,54,0.00,,,0.00,573,weatherlink.com 1.10,2013-01-13 19:17:00,
2013-01-13 12:32:00,22.0,6.0,30.34,East,90,6.0,11.0,50,0.00,,,0.00,577,weatherlink.com 1.10,2013-01-13 19:32:00,
2013-01-13 12:47:00,22.2,5.0,30.34,ENE,57,4.0,10.0,47,0.00,,,0.00,211,weatherlink.com 1.10,2013-01-13 19:47:00,
2013-01-13 13:02:00,21.2,2.0,30.34,ENE,71,3.0,10.0,44,0.00,,,0.00,281,weatherlink.com 1.10,2013-01-13 20:02:00,
2013-01-13 13:17:00,20.6,4.0,30.34,East,100,3.0,13.0,48,0.00,,,0.00,272,weatherlink.com 1.10,2013-01-13 20:17:00,
2013-01-13 13:32:00,18.0,1.0,30.34,East,92,5.0,13.0,47,0.00,,,0.00,218,weatherlink.com 1.10,2013-01-13 20:32:00,
2013-01-13 13:47:00,17.9,1.0,30.34,ENE,76,2.0,7.0,47,0.00,,,0.00,209,weatherlink.com 1.10,2013-01-13 20:47:00,
2013-01-13 14:02:00,16.8,3.0,30.34,ESE,107,9.0,10.0,54,0.00,,,0.00,204,weatherlink.com 1.10,2013-01-13 21:02:00,
2013-01-13 14:17:00,16.8,3.0,30.35,East,79,1.0,10.0,54,0.00,,,0.00,149,weatherlink.com 1.10,2013-01-13 21:17:00,
2013-01-13 14:32:00,15.3,2.0,30.36,East,86,13.0,13.0,55,0.00,,,0.00,132,weatherlink.com 1.10,2013-01-13 21:32:00,
2013-01-13 14:47:00,16.8,3.0,30.36,ENE,74,9.0,15.0,56,0.00,,,0.00,128,weatherlink.com 1.10,2013-01-13 21:47:00,
2013-01-13 15:02:00,17.3,3.0,30.37,East,85,3.0,14.0,54,0.00,,,0.00,118,weatherlink.com 1.10,2013-01-13 22:02:00,
2013-01-13 15:18:00,15.0,4.0,30.38,ESE,107,5.0,14.0,61,0.00,,,0.00,107,weatherlink.com 1.10,2013-01-13 22:18:00,
2013-01-13 15:33:00,15.6,3.0,30.38,East,85,9.0,13.0,58,0.00,,,0.00,100,weatherlink.com 1.10,2013-01-13 22:33:00,
2013-01-13 15:47:00,16.2,3.0,30.39,East,94,10.0,10.0,57,0.00,,,0.00,65,weatherlink.com 1.10,2013-01-13 22:47:00,
2013-01-13 16:02:00,13.6,1.0,30.39,East,87,2.0,10.0,57,0.00,,,0.00,51,weatherlink.com 1.10,2013-01-13 23:02:00,
2013-01-13 16:17:00,15.1,1.0,30.39,East,101,6.0,10.0,53,0.00,,,0.00,28,weatherlink.com 1.10,2013-01-13 23:17:00,
2013-01-13 16:32:00,14.1,0.0,30.40,East,96,1.0,6.0,54,0.00,,,0.00,16,weatherlink.com 1.10,2013-01-13 23:32:00,
2013-01-13 16:47:00,11.4,0.0,30.40,ESE,103,5.0,9.0,61,0.00,,,0.00,5,weatherlink.com 1.10,2013-01-13 23:47:00,
2013-01-13 17:02:00,12.7,2.0,30.40,East,100,5.0,6.0,62,0.00,,,0.00,0,weatherlink.com 1.10,2013-01-14 00:02:00,
2013-01-13 17:18:00,14.4,2.0,30.41,ENE,71,1.0,2.0,59,0.00,,,0.00,0,weatherlink.com 1.10,2013-01-14 00:18:00,
2013-01-13 17:33:00,12.3,0.0,30.41,ESE,115,0.0,5.0,58,0.00,,,0.00,0,weatherlink.com 1.10,2013-01-14 00:33:00,
2013-01-13 17:48:00,10.4,0.0,30.42,ESE,109,0.0,2.0,62,0.00,,,0.00,0,weatherlink.com 1.10,2013-01-14 00:48:00,
2013-01-13 18:03:00,10.4,0.0,30.42,ESE,118,0.0,1.0,63,0.00,,,0.00,0,weatherlink.com 1.10,2013-01-14 01:03:00,
2013-01-13 18:18:00,9.8,0.0,30.43,SE,124,0.0,3.0,65,0.00,,,0.00,0,weatherlink.com 1.10,2013-01-14 01:18:00,
2013-01-13 18:33:00,9.9,0.0,30.43,ESE,104,0.0,3.0,65,0.00,,,0.00,0,weatherlink.com 1.10,2013-01-14 01:33:00,
2013-01-13 18:48:00,10.8,0.0,30.43,East,93,0.0,2.0,62,0.00,,,0.00,0,weatherlink.com 1.10,2013-01-14 01:48:00,
2013-01-13 19:03:00,9.9,-1.0,30.43,SE,127,0.0,3.0,63,0.00,,,0.00,0,weatherlink.com 1.10,2013-01-14 02:03:00,
2013-01-13 19:18:00,10.4,2.0,30.44,ESE,105,0.0,0.0,70,0.00,,,0.00,0,weatherlink.com 1.10,2013-01-14 02:18:00,
2013-01-13 19:33:00,9.9,1.0,30.44,ESE,105,0.0,0.0,66,0.00,,,0.00,0,weatherlink.com 1.10,2013-01-14 02:33:00,
2013-01-13 19:48:00,10.0,1.0,30.44,ESE,106,0.0,0.0,67,0.00,,,0.00,0,weatherlink.com 1.10,2013-01-14 02:48:00,
2013-01-13 20:03:00,9.1,1.0,30.44,ESE,106,0.0,0.0,68,0.00,,,0.00,0,weatherlink.com 1.10,2013-01-14 03:03:00,
2013-01-13 20:18:00,8.6,0.0,30.44,ESE,106,0.0,0.0,69,0.00,,,0.00,0,weatherlink.com 1.10,2013-01-14 03:18:00,
2013-01-13 20:33:00,8.3,0.0,30.44,SE,144,0.0,0.0,68,0.00,,,0.00,0,weatherlink.com 1.10,2013-01-14 03:33:00,
2013-01-13 20:49:00,8.4,0.0,30.44,SE,130,0.0,1.0,69,0.00,,,0.00,0,weatherlink.com 1.10,2013-01-14 03:49:00,
2013-01-13 21:04:00,8.3,1.0,30.44,SE,130,0.0,0.0,72,0.00,,,0.00,0,weatherlink.com 1.10,2013-01-14 04:04:00,
2013-01-13 21:19:00,8.0,1.0,30.44,SE,135,0.0,0.0,74,0.00,,,0.00,0,weatherlink.com 1.10,2013-01-14 04:19:00,
2013-01-13 21:34:00,8.2,2.0,30.43,SE,136,0.0,0.0,75,0.00,,,0.00,0,weatherlink.com 1.10,2013-01-14 04:34:00,
2013-01-13 21:49:00,8.4,2.0,30.43,SE,136,0.0,0.0,76,0.00,,,0.00,0,weatherlink.com 1.10,2013-01-14 04:49:00,
2013-01-13 22:04:00,9.4,3.0,30.43,SE,136,0.0,0.0,74,0.00,,,0.00,0,weatherlink.com 1.10,2013-01-14 05:04:00,
2013-01-13 22:19:00,8.9,3.0,30.43,SE,136,0.0,0.0,75,0.00,,,0.00,0,weatherlink.com 1.10,2013-01-14 05:19:00,
2013-01-13 22:34:00,12.1,4.0,30.43,SE,136,0.0,0.0,69,0.00,,,0.00,0,weatherlink.com 1.10,2013-01-14 05:34:00,
2013-01-13 22:49:00,12.6,4.0,30.43,SE,136,0.0,0.0,68,0.00,,,0.00,0,weatherlink.com 1.10,2013-01-14 05:49:00,
2013-01-13 23:04:00,11.1,1.0,30.43,SE,136,0.0,0.0,65,0.00,,,0.00,0,weatherlink.com 1.10,2013-01-14 06:04:00,
2013-01-13 23:19:00,11.2,2.0,30.43,SE,136,0.0,0.0,66,0.00,,,0.00,0,weatherlink.com 1.10,2013-01-14 06:19:00,
2013-01-13 23:34:00,7.9,1.0,30.43,SE,136,0.0,0.0,73,0.00,,,0.00,0,weatherlink.com 1.10,2013-01-14 06:34:00,
2013-01-13 23:49:00,10.8,3.0,30.43,SE,136,0.0,0.0,71,0.00,,,0.00,0,weatherlink.com 1.10,2013-01-14 06:49:00,